CAPE
0 0 0 0 0 0 0 0 0 0 0 0 0 0 0 0 0 0 0 0 0 0 0 0 0 0 0 0 0 0 0 1 3 6 6 7 7 10
0 0 0 0 0 0 0 0 0 0 0 0 0 0 0 0 0 0 0 0 0 0 0 0 0 0 0 0 0 0 0 0 2 1 3 5 4 4
0 0 0 0 0 0 0 0 0 0 0 0 0 0 0 0 0 0 0 0 0 0 0 0 0 0 0 0 0 0 0 0 0 0 0 1 1 1
0 0 0 0 0 0 0 0 0 0 0 0 0 0 0 0 0 0 0 0 0 0 0 0 0 0 0 0 0 0 0 0 0 0 0 0 1 2
0 0 0 0 0 0 0 0 0 0 0 0 0 0 0 0 0 0 0 0 0 0 0 0 0 0 0 0 0 0 0 0 0 0 0 0 0 0
0 0 0 0 0 0 0 0 0 0 0 0 0 0 0 0 0 0 0 0 0 0 0 0 0 0 0 0 0 0 0 0 0 0 0 0 0 0
0 0 0 0 0 0 0 0 0 0 0 0 0 0 0 0 0 0 0 0 0 0 0 0 0 0 0 0 0 0 0 0 0 0 0 0 0 0
0 0 0 0 0 0 0 0 0 0 0 0 0 0 0 0 0 0 0 0 0 0 0 0 0 0 0 0 0 0 0 0 0 0 0 0 0 0
0 0 0 0 0 0 0 0 0 0 0 0 0 0 0 0 0 0 0 0 0 0 0 0 0 0 0 0 0 0 0 0 0 0 0 0 0 0
0 0 0 0 0 0 0 0 0 0 0 0 0 0 0 0 0 0 0 0 0 0 0 0 0 0 0 0 0 0 0 0 0 0 0 0 0 0
0 0 0 0 0 0 0 0 0 0 0 0 0 0 0 0 0 0 0 0 0 0 0 0 0 0 0 0 0 0 0 0 0 0 0 0 0 0
0 0 0 0 0 0 0 0 0 0 0 0 0 0 0 0 0 0 0 0 0 0 0 0 0 0 0 0 0 0 0 0 0 0 0 0 0 0
0 0 0 0 0 0 0 0 0 0 0 0 0 0 0 0 0 0 0 0 0 0 0 0 0 0 0 0 0 0 0 0 0 0 0 0 0 0
0 0 0 0 0 0 0 0 0 0 0 0 0 0 0 0 0 0 0 0 0 0 0 0 0 0 0 0 0 0 0 0 0 0 0 0 0 0
0 0 0 0 0 0 0 0 0 0 0 0 0 0 0 0 0 0 0 0 0 0 0 0 0 0 0 0 0 0 0 0 0 0 0 0 0 0
0 0 0 0 0 0 0 0 0 0 0 0 0 0 0 0 0 0 0 0 0 0 0 0 0 0 0 0 0 0 0 0 0 0 0 0 0 0
0 0 0 0 0 0 0 0 0 0 0 0 0 0 0 0 0 0 1 1 0 0 0 0 0 0 0 0 0 0 0 0 0 0 0 0 0 0
0 0 0 0 0 0 0 0 0 0 0 0 0 0 0 0 1 1 0 0 0 0 0 0 0 0 0 0 0 0 0 0 0 0 0 0 0 0
0 0 0 0 0 0 0 0 0 0 0 0 0 0 0 0 0 0 0 0 0 0 0 0 0 0 0 0 0 0 0 0 0 0 0 1 5 0
0 0 0 0 0 0 0 0 0 0 0 0 0 0 0 0 1 0 0 0 0 0 1 0 1 0 0 0 0 0 0 0 0 0 1 1 2 0
0 0 0 0 0 0 0 0 0 0 0 0 0 0 0 0 0 0 0 0 0 0 0 0 3 0 0 1 0 0 0 0 0 0 5 5 0 0
0 0 0 0 0 0 0 0 0 0 0 0 0 0 0 0 0 0 0 1 0 0 1 1 0 1 1 0 0 0 0 0 0 0 0 0 3 5
0 0 0 0 0 0 0 0 0 0 0 0 0 0 0 0 0 0 1 0 0 0 0 1 2 1 0 0 0 0 0 0 0 0 0 0 0 0
CIN
0 0 0 0 0 0 0 0 0 0 0 0 0 0 0 0 0 0 0 0 0 0 0 0 0 0 0 0 0 0 0 0 0 0 0 0 0 0
0 0 0 0 0 0 0 0 0 0 0 0 0 0 0 0 0 0 0 0 0 0 0 0 0 0 0 0 0 0 0 0 0 0 0 0 0 0
0 0 0 0 0 0 0 0 0 0 0 0 0 0 0 0 0 0 0 0 0 0 0 0 0 0 0 0 0 0 0 0 0 0 0 0 0 0
0 0 0 0 0 0 0 0 0 0 0 0 0 0 0 0 0 0 0 0 0 0 0 0 0 0 0 0 0 0 0 0 0 0 0 0 0 0
0 0 0 0 0 0 0 0 0 0 0 0 0 0 0 0 0 0 0 0 0 0 0 0 0 0 0 0 0 0 0 0 0 0 0 0 0 0
0 0 0 0 0 0 0 0 0 0 0 0 0 0 0 0 0 0 0 0 0 0 0 0 0 0 0 0 0 0 0 0 0 0 0 0 0 0
0 0 0 0 0 0 0 0 0 0 0 0 0 0 0 0 0 0 0 0 0 0 0 0 0 0 0 0 0 0 0 0 0 0 0 0 0 0
0 0 0 0 0 0 0 0 0 0 0 0 0 0 0 0 0 0 0 0 0 0 0 0 0 0 0 0 0 0 0 0 0 0 0 0 0 0
0 0 0 0 0 0 0 0 0 0 0 0 0 0 0 0 0 0 0 0 0 0 0 0 0 0 0 0 0 0 0 0 0 0 0 0 0 0
0 0 0 0 0 0 0 0 0 0 0 0 0 0 0 0 0 0 0 0 0 0 0 0 0 0 0 0 0 0 0 0 0 0 0 0 0 0
0 0 0 0 0 0 0 0 0 0 0 0 0 0 0 0 0 0 0 0 0 0 0 0 0 0 0 0 0 0 0 0 0 0 0 0 0 0
0 0 0 0 0 0 0 0 0 0 0 0 0 0 0 0 0 0 0 0 0 0 0 0 0 0 0 0 0 0 0 0 0 0 0 0 0 0
0 0 0 0 0 0 0 0 0 0 0 0 0 0 0 0 0 0 0 0 0 0 0 0 0 0 0 0 0 0 0 0 0 0 0 0 0 0
0 0 0 0 0 0 0 0 0 0 0 0 0 0 0 0 0 0 0 0 0 0 0 0 0 0 0 0 0 0 0 0 0 0 0 0 0 0
0 0 0 0 0 0 0 0 0 0 0 0 0 0 0 0 0 0 0 0 0 0 0 0 0 0 0 0 0 0 0 0 0 0 0 0 0 0
0 0 0 0 0 0 0 0 0 0 0 0 0 0 0 0 0 0 0 0 0 0 0 0 0 0 0 0 0 0 0 0 0 0 0 0 0 0
0 0 0 0 0 0 0 0 0 0 0 0 0 0 0 0 0 0 0 0 0 0 0 0 0 0 0 0 0 0 0 0 0 0 0 0 0 0
0 0 0 0 0 0 0 0 0 0 0 0 0 0 0 0 0 0 0 0 0 0 0 0 0 0 0 0 0 0 0 0 0 0 0 0 0 0
0 0 0 0 0 0 0 0 0 0 0 0 0 0 0 0 0 0 0 0 0 0 0 0 0 0 0 0 0 0 0 0 0 0 0 0 0 0
0 0 0 0 0 0 0 0 0 0 0 0 0 0 0 0 0 0 0 0 0 0 0 0 0 0 0 0 0 0 0 0 0 0 0 0 0 0
0 0 0 0 0 0 0 0 0 0 0 0 0 0 0 0 0 0 0 0 0 0 0 0 0 0 0 0 0 0 0 0 0 0 0 0 0 0
0 0 0 0 0 0 0 0 0 0 0 0 0 0 0 0 0 0 0 0 0 0 0 0 0 0 0 0 0 0 0 0 0 0 0 0 0 0
0 0 0 0 0 0 0 0 0 0 0 0 0 0 0 0 0 0 0 0 0 0 0 0 0 0 0 0 0 0 0 0 0 0 0 0 0 0
Wind_Speed
14 13 10 9 8 8 9 11 8 8 8 8 6 9 6 6 6 6 7 8 9 8 8 8 8 7 7 8 8 9 10 10 12 13 14 15 16 18
11 15 12 9 9 8 8 9 5 5 7 4 4 10 9 6 6 7 6 7 8 8 7 6 6 6 6 6 7 8 8 10 11 12 14 15 16 18
16 16 14 14 9 8 8 8 6 4 8 3 5 9 11 10 8 7 7 6 6 7 7 6 6 5 3 3 5 7 8 10 11 12 13 15 17 18
18 17 16 10 12 11 8 10 7 5 5 11 9 8 10 11 10 9 6 5 4 7 6 5 5 4 2 2 3 6 8 9 10 12 13 15 16 18
18 18 16 15 13 10 10 9 8 6 6 8 8 8 8 9 9 8 7 6 4 6 6 6 6 4 1 0 3 5 7 8 10 11 12 14 17 18
17 17 17 16 15 13 10 10 9 8 8 9 8 10 9 10 9 9 7 6 6 5 3 1 2 4 1 1 2 3 6 8 10 12 13 14 17 19
16 16 15 16 17 16 11 11 11 8 8 8 9 10 9 11 11 9 7 7 5 5 5 5 5 4 4 3 1 1 5 8 9 12 12 15 18 19
17 16 15 13 14 19 14 17 15 13 10 7 8 10 11 10 10 9 8 8 5 6 5 5 4 4 3 3 2 1 4 7 10 12 12 16 19 20
17 15 13 10 14 14 12 13 12 9 8 8 11 10 11 12 12 12 11 8 3 4 5 4 3 4 3 3 4 2 2 6 10 10 12 17 19 20
17 17 16 17 15 15 14 13 11 8 6 4 6 8 7 12 12 9 10 8 6 4 2 2 3 2 2 3 5 5 2 6 9 9 12 17 19 21
13 14 15 16 22 24 16 14 12 8 7 8 9 11 12 17 13 11 8 8 3 3 4 1 2 2 2 1 1 8 2 6 9 9 14 16 18 21
11 11 15 17 28 27 17 16 13 11 10 11 11 12 12 13 13 6 8 7 4 3 4 4 3 2 2 1 1 2 3 5 7 9 15 17 18 10
11 11 10 19 25 24 21 16 15 15 14 10 10 8 9 8 5 5 4 4 4 3 5 3 2 2 1 1 1 1 3 5 4 7 13 16 18 13
14 11 12 26 26 22 16 21 26 19 9 9 8 7 7 7 6 6 7 7 6 5 8 3 2 2 2 1 0 2 2 3 4 7 8 12 15 16
8 13 21 25 24 18 25 28 24 11 10 10 9 7 5 7 10 8 9 12 11 8 4 3 3 3 2 1 1 1 3 3 4 7 8 9 9 9
13 13 17 17 13 14 17 14 8 9 11 10 10 9 7 7 6 5 7 6 6 5 5 5 4 1 2 1 1 1 1 3 6 7 9 8 9 8
15 12 13 11 10 11 7 7 7 8 9 9 9 9 9 7 6 5 7 6 4 5 3 2 2 3 2 1 1 1 2 3 5 7 9 9 9 9
13 12 12 12 12 10 9 9 7 9 8 9 8 8 9 8 7 6 5 4 6 5 3 2 2 3 2 2 2 1 2 4 6 7 7 8 9 9
12 11 11 12 12 10 10 9 8 7 9 9 10 9 8 7 9 7 6 6 6 5 4 3 1 2 3 1 2 2 3 5 6 6 6 8 9 10
10 13 13 12 12 12 11 10 9 9 8 9 9 9 9 9 8 7 6 7 7 6 5 3 2 3 1 1 0 1 2 4 5 7 8 8 8 14
9 9 10 11 11 10 9 9 11 9 10 9 9 9 9 9 8 7 7 10 10 6 6 4 4 4 2 2 1 1 1 5 7 8 8 8 7 7
8 8 9 9 10 11 11 10 10 11 10 9 9 8 8 7 8 8 8 8 6 5 6 5 4 2 1 1 2 4 5 4 8 9 9 6 5 6
9 9 9 9 9 10 10 10 11 10 10 9 9 9 9 8 8 7 7 7 7 6 7 6 4 2 2 1 2 5 7 9 8 8 6 7 11 16
Wind_Direction
168 162 156 162 170 161 161 175 154 156 180 177 166 183 166 166 147 162 149 126 127 123 112 106 98 88 77 65 49 37 30 22 17 13 7 6 5 3
168 166 160 159 161 161 169 179 181 146 151 143 171 167 164 158 158 164 136 140 139 131 125 116 108 95 81 64 50 32 25 21 14 9 5 2 3 0
172 171 165 162 162 163 164 165 163 143 132 115 130 164 164 162 159 165 160 159 151 151 143 140 125 116 105 71 43 23 24 16 11 7 2 359 360 356
175 173 166 161 161 159 159 167 159 135 131 145 147 163 170 170 165 164 163 164 162 162 154 151 150 128 119 64 29 20 20 14 2 2 359 356 352 350
175 174 167 165 160 160 162 163 155 135 131 144 140 157 158 164 165 162 167 168 163 150 165 167 162 127 135 148 33 20 18 1 359 357 354 352 349 347
179 177 170 170 163 159 160 160 153 144 138 140 140 157 158 171 174 168 170 184 168 169 164 130 150 118 217 207 44 22 8 352 354 353 349 347 344 345
180 181 176 173 164 162 157 160 158 153 151 151 148 157 167 172 186 176 177 171 171 191 184 181 188 195 198 211 175 69 3 350 352 350 343 343 343 342
174 181 177 157 156 161 158 160 164 156 159 159 165 177 177 177 176 169 164 167 189 191 199 188 204 208 211 222 138 97 7 355 354 347 343 343 341 339
169 173 169 168 158 161 146 143 142 133 159 168 170 177 168 175 162 172 173 174 147 142 192 182 184 226 204 190 195 209 10 351 353 346 343 339 338 337
173 172 172 165 166 154 152 156 159 156 148 160 165 161 160 163 170 164 155 122 102 117 200 186 164 204 185 202 196 218 216 344 342 348 344 341 340 336
171 171 174 166 161 151 151 148 146 129 100 91 90 112 131 153 150 139 152 148 124 155 171 232 154 189 208 209 203 214 246 307 336 342 337 342 345 336
158 168 176 169 161 158 153 152 149 150 136 118 104 101 120 135 152 162 153 144 124 129 161 192 170 204 182 119 182 214 258 248 325 328 339 339 343 337
161 167 170 162 166 163 156 162 155 142 135 122 115 112 117 126 108 94 84 125 111 99 153 148 161 170 132 179 165 260 280 329 333 334 340 336 337 342
168 168 165 163 164 157 151 134 134 129 124 120 116 122 124 123 100 93 87 78 60 97 139 151 130 160 158 141 244 216 300 342 332 335 338 332 336 340
159 160 154 157 150 140 137 138 135 137 137 132 126 127 121 123 113 104 97 92 84 79 79 74 107 128 128 97 281 325 334 329 333 336 340 337 332 332
123 128 138 137 131 126 129 132 138 146 147 138 134 121 131 131 136 136 117 113 102 94 61 62 79 120 105 204 274 311 353 330 335 336 332 328 328 326
130 130 131 131 137 133 125 122 129 133 130 130 134 142 140 132 132 137 122 135 139 143 142 131 47 72 55 116 182 231 342 336 343 334 333 327 322 317
139 148 145 145 144 140 141 134 133 132 132 128 130 140 136 142 145 141 124 133 135 138 152 142 120 152 163 114 334 177 343 340 335 327 319 316 309 318
146 147 152 147 145 146 145 150 142 140 137 133 138 140 137 140 148 139 136 138 128 136 128 127 115 186 177 182 125 228 350 333 327 325 327 314 308 305
151 154 153 151 154 150 152 140 138 142 145 138 145 142 147 148 152 147 153 142 151 143 138 136 108 63 87 122 217 93 348 300 324 316 316 309 295 301
148 150 148 148 147 145 145 145 147 149 146 147 148 148 151 153 149 144 143 157 148 151 152 143 101 80 106 187 216 240 286 269 270 295 303 305 313 314
137 136 135 140 145 144 143 143 140 147 148 152 148 140 146 152 145 147 152 153 151 146 124 119 141 175 186 45 353 318 316 326 312 303 293 281 305 316
135 136 139 138 139 143 143 145 149 149 149 146 141 148 151 144 142 142 138 132 140 137 144 139 148 148 104 55 329 323 320 331 335 328 322 326 308 310